sat.trackr.live / text

‹ back to catalog

KUIPER-00106

NORAD 65144 · 2025-171N

PAYLOAD ACTIVE UNKNOWN

§ Identity

Operator
Country
US
Launch date
2025-08-11
Launch site
AFETR
Launch vehicle
Mass (kg)
RCS (m²)

External: N2YO · Heavens-Above · Gunter

§ Orbital elements

Epoch: 2026-09-21T13:17:54.506976Z

Period
97.30 min
Inclination
51.9029°
Eccentricity
0.0000435
Mean motion
14.79937810 rev/d
Perigee alt
629.2 km
Apogee alt
629.8 km
Semi-major
7,007.7 km
B*
3.1171e-4
RAAN
358.3136°
Arg perigee
94.9317°
Mean anomaly
265.1695°
Rev number
6,209

§ Raw data

KUIPER-001061 65144U 25171N   26264.55410309  .00002156  00000+0  31171-3 0  99922 65144  51.9029 358.3136 0000435  94.9317 265.1695 14.79937810 62092

JSON: /api/v1/satellites/65144 · /tle

For live sub-satellite position, see the globe view (requires WebGL).

§ Visibility from observer

Set your observer location to see the next 7 days of passes ≥ 10°. The values pass through the URL so the page stays shareable.

No JS? Fill the form by hand. The geolocation button needs JavaScript.